Regional Weather Roundup
Issued by NWS

Home | Current Version | Previous Version | Graphics & Text | Print | Product List | Glossary On
Versions: 1 2 3 4 5 6 7 8 9 10 11 12 13 14 15 16 17 18 19 20 21 22 23 24 25 26 27 28 29 30 31 32 33 34 35 36 37 38 39 40 41 42 43 44 45 46 47 48 49 50
000
ASUS43 KIND 191759
RWRIN

WEATHER ROUNDUP FOR INDIANA
NATIONAL WEATHER SERVICE INDIANAPOLIS IN
100 PM EST FRI JAN 19 2018

NOTE: "FAIR" INDICATES FEW OR NO CLOUDS BELOW 12,000 FEET WITH NO
SIGNIFICANT WEATHER AND/OR OBSTRUCTIONS TO VISIBILITY.

* - STATION DOES NOT REPORT WEATHER SUCH AS PRECIPITATION OR FOG.

+ - STATION NOT QUALITY CONTROLLED BY THE NATIONAL WEATHER SERVICE.
    USE DATA WITH CAUTION...ESPECIALLY DEWPOINT AND RELATIVE
    HUMIDITY OBSERVATIONS.

INZ001>003-010>013-019-020-191900-
NORTHWEST INDIANA

CITY           SKY/WX    TMP DP  RH WIND       PRES   REMARKS
GARY /AIRPORT/ PTSUNNY   36  19  51 S17G29    29.90F WCI  25
KNOX *+        FAIR      32  21  64 SW13G18   29.94F WCI  22
MONTICELLO +   FAIR      32  19  57 SW17      29.97F WCI  21
6HR MIN TEMP:  22; 6HR MAX TEMP:  32;


$$

LMZ046-743>745-191900-
SOUTHERN LAKE MICHIGAN

STATION/POSITION TIME  TEMP    WIND        PRES    WAVE
                       AIR SEA DIR/SP/G            HT
                 (UTC) (F)     (DEG/KT/KT) (MB)    (FT)
BURNS HARBOR     1740   35     200/ 16/ 21 1012.9F
MICHIGAN CITY    1730   34     190/ 16/ 18   N/A

$$

INZ004-005-014>016-021>024-191900-
NORTH CENTRAL INDIANA

CITY           SKY/WX    TMP DP  RH WIND       PRES   REMARKS
ELKHART        FAIR      34  19  55 SW9       29.91F WCI  26
GOSHEN         FAIR      31  19  61 SW20G32   29.92F WCI  19
6HR MIN TEMP:  23; 6HR MAX TEMP:  31;

PERU/GRISSOM   FAIR      33  22  63 SW18      29.96F WCI  22
6HR MIN TEMP:  22; 6HR MAX TEMP:  33;

SOUTH BEND     FAIR      32  19  58 SW20G28   29.91F WCI  20
6HR MIN TEMP:  22; 6HR MAX TEMP:  32;


$$

INZ006>009-017-018-025>027-191900-
NORTHEAST INDIANA

CITY           SKY/WX    TMP DP  RH WIND       PRES   REMARKS
FORT WAYNE     FAIR      33  21  61 SW18      29.97F WCI  22
6HR MIN TEMP:  22; 6HR MAX TEMP:  33;

KENDALLVILLE + FAIR      33  19  58 SW17      29.93F WCI  21

$$

INZ028-029-035-036-043>045-051>053-191900-
WEST CENTRAL INDIANA

CITY           SKY/WX    TMP DP  RH WIND       PRES   REMARKS
GREENCASTLE +  FAIR      34  18  51 CALM      30.04F
LAFAYETTE      FAIR      33  20  58 SW13G20   29.99F WCI  24
6HR MIN TEMP:  22; 6HR MAX TEMP:  33;

TERRE HAUTE    FAIR      32  19  58 S12       30.06F WCI  23
6HR MIN TEMP:  18; 6HR MAX TEMP:  32;


$$

INZ030>032-037>040-046>048-054>057-064-065-191900-
CENTRAL INDIANA

CITY           SKY/WX    TMP DP  RH WIND       PRES   REMARKS
ANDERSON       SUNNY     30  18  59 SW12G23   30.04F WCI  21
COLUMBUS       SUNNY     32  14  47 S16       30.11F WCI  21
INDIANAPOLIS   FAIR      35  19  52 S12       30.05F WCI  27
6HR MIN TEMP:  19; 6HR MAX TEMP:  35;

-EAGLE CREEK   FAIR      34  18  52 SW15G21   30.03F WCI  24
6HR MIN TEMP:  21; 6HR MAX TEMP:  34;

MT COMFORT *+  FAIR      34  23  64 SW14      30.04F WCI  24
SHELBYVILLE    FAIR      31  17  56 S15       30.07F WCI  20
6HR MIN TEMP:  20; 6HR MAX TEMP:  31;


$$

INZ033-034-041-042-049-050-058-059-191900-
EAST CENTRAL INDIANA

CITY           SKY/WX    TMP DP  RH WIND       PRES   REMARKS
MUNCIE         FAIR      33  17  51 SW13G22   30.00F WCI  24
6HR MIN TEMP:  24; 6HR MAX TEMP:  33;

RICHMOND +     FAIR      32  19  59 SW13      30.07F WCI  22

$$

INZ060-061-067>069-081>083-085>088-191900-
SOUTHWEST INDIANA

CITY           SKY/WX    TMP DP  RH WIND       PRES   REMARKS
EVANSVILLE     FAIR      33  19  56 SW13      30.17F WCI  24
6HR MIN TEMP:  22; 6HR MAX TEMP:  33;

HUNTINGBURG +  FAIR      33  18  53 S13       30.17F WCI  24
6HR MIN TEMP:  17; 6HR MAX TEMP:  35;


$$

INZ062-063-066-070>080-084-089>092-191900-
SOUTH CENTRAL AND SOUTHEAST INDIANA

CITY           SKY/WX    TMP DP  RH WIND       PRES   REMARKS
BLOOMINGTON    FAIR      37  18  46 SW15      30.08F WCI  28
6HR MIN TEMP:  22; 6HR MAX TEMP:  37;

FRENCH LICK *+ FAIR      36  12  38 SW10      30.14F WCI  28
MADISON *+     FAIR      34  19  55 S12       30.14F WCI  25
SEYMOUR +      FAIR      36  19  51 SW12      30.13  WCI  27

$$




USA.gov is the U.S. government's official web portal to all federal, state and local government web resources and services.